Regional Weather Roundup
Issued by NWS Newport/Morehead, NC

Current Version | Previous Version | Text Only | Print | Product List | Glossary Off
Versions: 1 2 3 4 5 6 7 8 9 10 11 12 13 14 15 16 17 18 19 20 21 22 23 24 25 26 27 28 29 30 31 32 33 34 35 36 37 38 39 40 41 42 43 44 45 46 47 48 49 50
000 ASUS42 KMHX 012013 RWRMHX WEATHER ROUNDUP FOR EASTERN NORTH CAROLINA NATIONAL WEATHER SERVICE NEWPORT/MOREHEAD CITY NC 400 PM EDT SAT AUG 01 2015 NOTE: "FAIR" INDICATES FEW OR NO CLOUDS BELOW 12,000 FEET WITH NO SIGNIFICANT WEATHER AND/OR OBSTRUCTIONS TO VISIBILITY NCZ015>017-031-032-045>047-102-103-012100- NORTH COAST CITY SKY/WX TMP DP RH WIND PRES REMARKS EDENTON N/A 89 70 53 S9 29.87F ELIZABETH CITY SUNNY 89 70 53 SE10 29.87F KITTY HAWK MOCLDY 90 70 50 SE7 29.88F MANTEO PTSUNNY 85 71 60 S8 29.89F $$ NCZ045>047-081-094-103-104-012100- CENTRAL COAST CITY SKY/WX TMP DP RH WIND PRES REMARKS FRISCO PTSUNNY 83 75 77 SW7 29.90F SWANQUARTER N/A 86 N/A N/A SE6 29.85S $$ NCZ095-097-098-100-101-012100- SOUTHERN COAST CITY SKY/WX TMP DP RH WIND PRES REMARKS BEAUFORT PTSUNNY 83 78 85 S12 29.90S CEDAR ISLAND N/A 81 N/A N/A S9 29.91F JACKSONVILLE MOSUNNY 90 73 57 SW8 29.87F PINEY ISLAND MOCLDY N/A N/A N/A S6 29.89S WILMINGTON CLOUDY 90 69 50 NE5 29.88F $$ NCZ011>013-027>030-043-044-078>080-089-090>093-098-012100- COASTAL PLAIN CITY SKY/WX TMP DP RH WIND PRES REMARKS AHOSKIE SUNNY 88 60 39 CALM 29.86F CLINTON SUNNY 93 64 38 CALM 29.88F ELIZABETHTOWN MOSUNNY 92 60 34 CALM 29.88F GOLDSBORO SUNNY 93 67 41 W7 29.85F GREENVILLE MOSUNNY 95 59 30 W6 29.89F HAVELOCK LGT RAIN 86 77 74 SE8 29.89F KENANSVILLE SUNNY 91 57 31 W5 29.89F KINSTON NOT AVBL NEW BERN MOSUNNY 93 64 38 CALM 29.88F RICHLANDS SUNNY 93 61 33 NW5 29.88S ROCKY MOUNT SUNNY 96 51 21 W9 29.87F WASHINGTON SUNNY 90 64 41 W3 29.87F WHITEVILLE MOSUNNY 91 66 44 SE3 29.88F $$ AMZ130-135-150-152-154-156-158-170-250-252-270-ANZ085-086-088-633-658-670-012100- MARINE OBSERVATIONS STATION/POSITION TIME TEMP WIND PRES WAVE SWELL AIR SEA DIR/SP/G HT/PER HT/PER (UTC) (F) (DEG/KT/KT) (MB) (FT/S) (FT/S) CHESAPEAKE LIGHT 2000 81 170/ 18/ 19 1011.6 64 E VA BEACH 1950 80 82 190/ 14/ 14 1012.0 4/ 8 3/ 8 DUCK 1900 81 80 140/ 12/ 13 1011.3 2 E DUCK 1911 79 N/A 2/ 8 OREGON INLET 1900 81 82 180/ 9/ 12 1012.4 13E OREGON INLT 2000 81 N/A 3/ 7 2/12 HATTERAS CG 1900 84 80 170/ 5/ 8 1012.4 DIAMOND BUOY 1950 82 85 190/ 16/ 17 1012.5 3/ 8 2/ 8 CAPE LOOKOUT 2000 82 210/ 8/ 11 1012.2 BEAUFORT LAB 1900 83 84 290/ 3/ 4 1012.0 30 SE NEW RVR IN NOT AVBL 27 SE WRIGHTSVLE 1900 78 83 230/ 14/ 16 N/A 5 SE WRIGHTSVLE 1908 82 83 210/ 16/ 19 1012.7 225 S CAPE HAT 1950 83 81 240/ 16/ 19 1015.9 6/ 7 2/ 9 41 SE CHARLESTON 1950 80 84 160/ 6/ 8 1012.7 3/ 6 3/ 6 $$

USA.gov is the U.S. government's official web portal to all federal, state and local government web resources and services.